Weather observations for the past three days for
Ormond Beach, Ormond Beach Municipal Airport
| Date | Time (edt) | Wind (mph) | Vis. (mi.) | Weather | Sky Cond. | Temperature (ºF) | Relative Humidity | Wind Chill (°F) | Heat Index (°F) | Pressure | Precipitation (in) | ||||||
|---|---|---|---|---|---|---|---|---|---|---|---|---|---|---|---|---|---|
| Air | Dwpt | 6 hour | altimeter (in) | sea level (mb) | 1 hr | 3 hr | 6 hr | ||||||||||
| Max. | Min. | ||||||||||||||||
| 02 | 18:50 | E 9 | 7.00 | Mostly Cloudy | BKN019 BKN027 | 82.4 | 80.6 | 94% | 94 | 29.97 | 0.0 | ||||||
| 02 | 17:50 | E 9 | 7.00 | Mostly Cloudy | SCT016 BKN027 | 82.4 | 80.6 | 94% | 94 | 29.97 | 0.0 | ||||||
| 02 | 16:50 | E 12 G 18 | 7.00 | Mostly Cloudy | BKN017 BKN027 | 84.2 | 82.4 | 94% | 101 | 29.97 | 0.0 | ||||||
| 02 | 15:50 | E 12 G 18 | 7.00 | Mostly Cloudy | BKN019 | 86 | 80.6 | 84% | 102 | 29.98 | 0.0 | ||||||
| 02 | 14:50 | E 12 G 18 | 7.00 | Mostly Cloudy | BKN021 | 86 | 80.6 | 84% | 102 | 29.98 | 0.0 | ||||||
| 02 | 13:50 | E 9 | 7.00 | Partly Cloudy | SCT022 | 86 | 80.6 | 84% | 102 | 30.01 | 0.0 | ||||||
| 02 | 12:50 | NE 12 | 7.00 | Partly Cloudy | SCT021 | 87.8 | 82.4 | 84% | 108 | 30.01 | 0.0 | ||||||
| 02 | 11:50 | NE 12 | 7.00 | Partly Cloudy | SCT022 | 87.8 | 80.6 | 79% | 105 | 30.03 | 0.0 | ||||||
| 02 | 10:50 | NE 12 | 7.00 | Showers in Vicinity | SCT025 | 82.4 | 80.6 | 94% | 94 | 30.03 | 0.0 | ||||||
| 02 | 09:50 | NE 7 | 7.00 | Showers in Vicinity | SCT025 | 82.4 | 82.4 | 100% | 96 | 30.02 | 0.0 | ||||||
| 02 | 09:30 | Calm | 5.00 | Fog/Mist | SCT025 | 80.6 | 80.6 | 100% | 89 | 30.02 | 0.0 | ||||||
| 02 | 08:50 | E 6 | 4.00 | Light Rain | BKN007 | 80.6 | 80.6 | 100% | 89 | 30.03 | 0.0 | ||||||
| 02 | 07:45 | Calm | 5.00 | Fog/Mist | BKN007 | 78.8 | 78.8 | 100% | 83 | 30.01 | 0.0 | ||||||
| 02 | 06:50 | Calm | 7.00 | Partly Cloudy | SCT027 | 78.8 | 78.8 | 100% | 83 | 30.01 | 0.0 | ||||||
| 01 | 18:50 | NE 12 | 7.00 | A Few Clouds | FEW015 | 84.2 | 80.6 | 89% | 98 | 30.02 | 0.0 | ||||||
| 01 | 17:50 | NE 12 G 17 | 7.00 | Clear | SKC | 84.2 | 78.8 | 84% | 96 | 30 | 0.0 | ||||||
| 01 | 16:50 | NE 13 G 22 | 7.00 | A Few Clouds | FEW017 | 84.2 | 78.8 | 84% | 96 | 30.01 | 0.0 | ||||||
| 01 | 15:50 | NE 10 G 18 | 7.00 | A Few Clouds | FEW021 | 86 | 80.6 | 84% | 102 | 30.02 | 0.0 | ||||||
| 01 | 14:50 | NE 10 G 16 | 7.00 | A Few Clouds | FEW021 | 87.8 | 80.6 | 79% | 105 | 30.02 | 0.0 | ||||||
| 01 | 13:50 | NE 14 | 7.00 | Fair | CLR | 86 | 80.6 | 84% | 102 | 30.04 | 0.0 | ||||||
| 01 | 12:50 | NE 13 G 18 | 7.00 | Mostly Cloudy | BKN019 | 86 | 80.6 | 84% | 102 | 30.06 | 0.0 | ||||||
| 01 | 11:50 | NE 13 G 18 | 7.00 | Mostly Cloudy | BKN019 | 86 | 80.6 | 84% | 102 | 30.07 | 0.0 | ||||||
| 01 | 10:50 | NE 9 | 7.00 | Partly Cloudy | SCT021 | 86 | 80.6 | 84% | 102 | 30.06 | 0.0 | ||||||
| 01 | 09:50 | NE 8 | 7.00 | A Few Clouds | FEW019 | 84.2 | 78.8 | 84% | 96 | 30.05 | 0.0 | ||||||
| 01 | 08:50 | NE 5 | 7.00 | Fair | CLR | 80.6 | 80.6 | 100% | 89 | 30.04 | 0.0 | ||||||
| 01 | 07:50 | Calm | 7.00 | A Few Clouds | FEW060 | 77 | 77 | 100% | 78 | 30.03 | 0.0 | ||||||
| 01 | 06:50 | Calm | 7.00 | A Few Clouds | FEW050 | 75.2 | 75.2 | 100% | 73 | 30.01 | 0.0 | ||||||
| 31 | 18:50 | NE 15 | 7.00 | Fair | CLR | 84.2 | 80.6 | 89% | 98 | 30.03 | 0.0 | ||||||
| 31 | 17:50 | NE 15 | 7.00 | Mostly Cloudy | BKN016 | 84.2 | 82.4 | 94% | 101 | 30.03 | 0.0 | ||||||
| 31 | 16:50 | NE 15 G 21 | 7.00 | Mostly Cloudy | BKN016 | 84.2 | 82.4 | 94% | 101 | 30.04 | 0.0 | ||||||
| 31 | 15:50 | NE 14 G 21 | 7.00 | Partly Cloudy | SCT017 | 86 | 82.4 | 89% | 105 | 30.03 | 0.0 | ||||||
| 31 | 14:50 | NE 14 G 21 | 7.00 | Showers in Vicinity | SCT020 | 87.8 | 82.4 | 84% | 108 | 30.04 | 0.0 | ||||||
| 31 | 13:50 | E 12 | 7.00 | Partly Cloudy | SCT035 | 87.8 | 80.6 | 79% | 105 | 30.05 | 0.0 | ||||||
| 31 | 12:50 | NE 12 | 7.00 | Mostly Cloudy | BKN030 | 87.8 | 80.6 | 79% | 105 | 30.07 | 0.0 | ||||||
| 31 | 11:50 | NE 7 | 7.00 | Mostly Cloudy | BKN024 | 86 | 82.4 | 89% | 105 | 30.09 | 0.0 | ||||||
| 31 | 10:50 | E 7 | 6.00 | Light Rain | BKN024 | 82.4 | 80.6 | 94% | 94 | 30.08 | 0.0 | ||||||
| 31 | 09:50 | E 5 | 7.00 | Mostly Cloudy | BKN020 | 84.2 | 82.4 | 94% | 101 | 30.06 | 0.0 | ||||||
| 31 | 06:50 | Calm | 7.00 | Fair | CLR | 75.2 | 75.2 | 100% | 73 | 30.03 | 0.0 | ||||||
| Date | Time (edt) | Wind (mph) | Vis. (mi.) | Weather | Sky Cond. | Air | Dwpt | Max. | Min. | Relative Humidity | Wind Chill (°F) | Heat Index (°F) | altimeter (in) | sea level (mb) | 1 hr | 3 hr | 6 hr |
| 6 hour | |||||||||||||||||
| Temperature (ºF) | Pressure | Precipitation (in) | |||||||||||||||